sat.trackr.live / text

‹ back to catalog

STARLINK-36254

NORAD 68338 · 2026-059T

PAYLOAD ACTIVE UNKNOWN

§ Identity

Operator
Country
US
Launch date
2026-03-22
Launch site
AFETR
Launch vehicle
Mass (kg)
RCS (m²)

Purposes: comms

External: N2YO · Heavens-Above · Gunter

§ Orbital elements

Epoch: 2026-05-25T04:00:03.998880Z

Period
93.79 min
Inclination
53.1596°
Eccentricity
0.0001262
Mean motion
15.35397808 rev/d
Perigee alt
458.9 km
Apogee alt
460.6 km
Semi-major
6,837.9 km
B*
-2.3588e-4
RAAN
348.6242°
Arg perigee
97.9554°
Mean anomaly
2.0043°
Rev number
591

§ Raw data

STARLINK-362541 68338U 26059T   26145.16671295 -.00008598  00000+0 -23588-3 0  99952 68338  53.1596 348.6242 0001262  97.9554   2.0043 15.35397808  5911

JSON: /api/v1/satellites/68338 · /tle

For live sub-satellite position, see the globe view (requires WebGL).

§ Visibility from observer

Set your observer location to see the next 7 days of passes ≥ 10°. The values pass through the URL so the page stays shareable.

No JS? Fill the form by hand. The geolocation button needs JavaScript.